Location: Tamazert
(32.6352°N, 5.2072°W)
Time: 05:39:35
(UTC+00:00)

Vanguard 2 - Pass Details

Date: 07 October 2022
Orbit: 553 x 2933 km, 32.9° (Epoch: 04 December)

Event Time Altitude Azimuth Distance (km) Brightness Sun altitude
Rises 20:31:26 0° 274° (W) 6,673 13.4 -32.9°
Reaches altitude 10° 20:38:54 10° 255° (WSW) 5,759 12.6 -34.4°
Maximum altitude 20:47:09 15° 227° (SW) 5,226 12.0 -36.1°
Drops below altitude 10° 20:55:01 10° 198° (SSW) 5,369 11.8 -37.6°
Sets 21:01:39 0° 178° (S) 5,980 11.9 -38.9°
